Regional Weather Roundup
Issued by NWS Newport/Morehead, NC

Current Version | Previous Version | Graphics & Text | Print | Product List | Glossary Off
Versions: 1 2 3 4 5 6 7 8 9 10 11 12 13 14 15 16 17 18 19 20 21 22 23 24 25 26 27 28 29 30 31 32 33 34 35 36 37 38 39 40 41 42 43 44 45 46 47 48 49 50

000
ASUS42 KMHX 290025
RWRMHX
WEATHER ROUNDUP FOR EASTERN NORTH CAROLINA
NATIONAL WEATHER SERVICE NEWPORT/MOREHEAD CITY NC
800 PM EDT FRI AUG 28 2015

NOTE: "FAIR" INDICATES FEW OR NO CLOUDS BELOW 12,000 FEET
WITH NO SIGNIFICANT WEATHER AND/OR OBSTRUCTIONS TO VISIBILITY

NCZ015>017-031-032-045>047-102-103-290100-
NORTH COAST

CITY           SKY/WX    TMP DP  RH WIND       PRES   REMARKS
EDENTON        PTCLDY    71  61  69 CALM      30.17R
ELIZABETH CITY PTCLDY    72  62  71 E7        30.17R
KITTY HAWK     PTCLDY    75  64  67 NE8       30.15R
MANTEO         PTCLDY    74  65  72 NE9       30.16S

$$

NCZ045>047-081-094-103-104-290100-
CENTRAL COAST

CITY           SKY/WX    TMP DP  RH WIND       PRES   REMARKS
FRISCO         MOCLDY    76  66  71 NE8G17    30.14R
SWANQUARTER    NOT AVBL

$$

NCZ095-097-098-100-101-290100-
SOUTHERN COAST

CITY           SKY/WX    TMP DP  RH WIND       PRES   REMARKS
BEAUFORT       PTCLDY    75  67  76 NE8       30.13R
CEDAR ISLAND   NOT AVBL
JACKSONVILLE   PTCLDY    78  63  59 NE7       30.13R
PINEY ISLAND   PTCLDY   N/A N/A N/A NE13G23   30.13S
WILMINGTON     MOCLDY    77  68  73 NE6       30.12R


$$

NCZ011>013-027>030-043-044-078>080-089-090>093-098-290100-
COASTAL PLAIN

CITY           SKY/WX    TMP DP  RH WIND       PRES   REMARKS
AHOSKIE        CLEAR     73  59  61 CALM      30.17R
CLINTON        MOCLDY    74  65  73 CALM      30.14S
ELIZABETHTOWN  PTCLDY    74  64  72 CALM      30.13S
GOLDSBORO      MOCLDY    76  64  65 E6        30.13R
GREENVILLE     MOCLDY    73  63  68 E5        30.17R
HAVELOCK       PTCLDY    76  67  73 E6        30.15R
KENANSVILLE      N/A     73  65  76 CALM      30.15R
KINSTON        MOCLDY    77  61  57 E6        30.16R
NEW BERN       PTCLDY    76  61  59 NE7       30.15R
RICHLANDS      PTCLDY    72  63  73 N5        30.15R
ROCKY MOUNT    PTCLDY    78  61  55 E5        30.15R
WASHINGTON     MOCLDY    72  62  71 E5        30.16R
WHITEVILLE     CLEAR     73  66  80 CALM      30.12S

$$

AMZ130-135-150-152-154-156-158-170-250-252-270-ANZ085-086-088-633-658-670-290100-
MARINE OBSERVATIONS

STATION/POSITION TIME  TEMP    WIND        PRES    WAVE   SWELL
                       AIR SEA DIR/SP/G            HT/PER HT/PER
                 (UTC) (F)     (DEG/KT/KT) (MB)    (FT/S) (FT/S)
CHESAPEAKE LIGHT 0000   76      80/ 10/ 11 1022.1
64 E VA BEACH    2350   76 80   40/ 12/ 16 1020.8    4/10   3/10
DUCK             NOT AVBL
2 E DUCK         0011      79                N/A     4/11   2/11
OREGON INLET     NOT AVBL
13E OREGON INLT  0000      78                N/A     4/11   2/11
HATTERAS CG      NOT AVBL
DIAMOND BUOY     2350   79 83   30/ 17/ 21 1019.7    4/11   3/11
CAPE LOOKOUT     0000   78      40/ 18/ 22 1019.8
BEAUFORT LAB     NOT AVBL
30 SE NEW RVR IN 2308   80 82   60/ 17/ 23 1019.7
30 SE NEW RVR IN 2325      82                N/A     5/ 6   2/12
27 SE WRIGHTSVLE 0000   77 82   60/ 16/ 17   N/A
5 SE WRIGHTSVLE  2308   81 82   80/ 14/ 17 1019.2
225 S CAPE HAT   2350   82 84  280/  8/ 12 1018.3    3/11   3/11
41 SE CHARLESTON 2350   81 84   50/ 19/ 23 1017.8    5/ 6   2/10

$$


USA.gov is the U.S. government's official web portal to all federal, state and local government web resources and services.